Regional Weather Roundup
Issued by NWS

Home | Current Version | Previous Version | Text Only | Print | Product List | Glossary Off
Versions: 1 2 3 4 5 6 7 8 9 10 11 12 13 14 15 16 17 18 19 20 21 22 23 24 25 26 27 28 29 30 31 32 33 34 35 36 37 38 39 40 41 42 43 44 45 46 47 48 49 50

000
ASUS43 KLMK 281802
RWRKY
KENTUCKY REGIONAL WEATHER ROUNDUP
NATIONAL WEATHER SERVICE LOUISVILLE KY
200 PM EDT SAT MAY 28 2016

NOTE "FAIR" INDICATES FEW OR NO CLOUDS BELOW 12,000 FEET
WITH NO SIGNIFICANT WEATHER AND/OR OBSTRUCTIONS TO VISIBILITY.

KYZ001>023-026-027-061>063-070>075-281900-
WESTERN AND SOUTH CENTRAL KENTUCKY

CITY           SKY/WX    TMP DP  RH WIND       PRES   REMARKS
PADUCAH        CLOUDY    80  66  62 SW10      30.01F
HENDERSON      CLOUDY    81  63  54 S13G21    30.01S
OWENSBORO      CLOUDY    80  68  67 S12       30.05S
HOPKINSVILLE   NOT AVBL
BOWLING GREEN  CLOUDY    79  67  66 S8        30.08F
GLASGOW        NOT AVBL
$$

KYZ024-025-028>034-038-045-046-053-281900-
NORTH CENTRAL KENTUCKY

CITY           SKY/WX    TMP DP  RH WIND       PRES   REMARKS
LOUISVILLE/SDF CLOUDY    83  66  56 SE8       30.06F
LOUISVILLE/LOU CLOUDY    82  66  58 VRB7      30.07F
FORT KNOX      PTSUNNY   82  67  60 S12       30.06F
$$

KYZ035>037-039>044-047>052-055>060-089>105-281900-
NORTHEAST KENTUCKY

CITY           SKY/WX    TMP DP  RH WIND       PRES   REMARKS
LEXINGTON      MOSUNNY   83  64  52 SW9G20    30.12F
COVINGTON      CLOUDY    81  67  62 S7        30.10F
FRANKFORT      MOSUNNY   83  63  50 S12       30.10F
$$

KYZ054-064>069-076>088-106>120-281900-
SOUTHEAST KENTUCKY

CITY           SKY/WX    TMP DP  RH WIND       PRES   REMARKS
JACKSON        MOSUNNY   83  65  54 VRB3      30.17F
LONDON         MOSUNNY   82  60  47 W8        30.15F
SOMERSET       NOT AVBL
MIDDLESBORO    NOT AVBL
MONTICELLO     PTCLDY    84  66  54 VRB7      30.14F
$$





USA.gov is the U.S. government's official web portal to all federal, state and local government web resources and services.